International Skating Union - Official Site

Essent ISU World Cup Astana
December 1-2, 2012

Draw | Lap Times | Index | World Cup

Referee: Ekaterina  PILSHCHIKOVA  (RUS)
Starter: Ole Herman  SÖRLI  (NOR)
StartTime: EndTime: Air Temp: Ice Temp: Humidity:
18:05 18:30 15 ℃ -6.6 ℃ 40.1%
Result Team Pursuit Ladies
Rankings as of Dec 2 2012 6:52PM
Rank: No.: Team: Nation: Time: Behind: Points:
Total 9
1 3 Canada (3) Ivanie Blondin (6) Christine Nesbitt (7) Brittany Schussler (0)   CAN CAN 2:58.400.5 - 18.75 - (18.7)
1.0 - 32.61 - (13.8)
1.5 - 46.47 - (13.8)
2.0 - 1:00.45 - (13.9)
2.5 - 1:14.70 - (14.2)
3.0 - 1:28.97 - (14.2)
3.5 - 1:43.58 - (14.6)
4.0 - 1:58.21 - (14.6)
4.5 - 2:13.24 - (15.0)
5.0 - 2:28.27 - (15.0)
5.5 - 2:43.41 - (15.1)
6.0 - 2:58.39 - (14.9)
100
2 5 Korea (25) Bo-Reum Kim (27) Seon-Yeong Noh (28) Do-Yeong Park (0)   KOR KOR 3:00.550.5 - 19.24 - (19.2)
1.0 - 33.65 - (14.4)
1.5 - 47.95 - (14.3)
2.0 - 1:02.06 - (14.1)
2.5 - 1:16.33 - (14.2)
3.0 - 1:30.69 - (14.3)
3.5 - 1:45.47 - (14.7)
4.0 - 2:00.19 - (14.7)
4.5 - 2:15.14 - (14.9)
5.0 - 2:30.23 - (15.0)
5.5 - 2:45.26 - (15.0)
6.0 - 3:00.55 - (15.2)
2.15 80
3 2 Netherlands (32) Marrit Leenstra (34) Diane Valkenburg (35) Linda de Vries (0)   NED NED 3:00.710.5 - 19.15 - (19.1)
1.0 - 33.71 - (14.5)
1.5 - 48.10 - (14.3)
2.0 - 1:02.16 - (14.0)
2.5 - 1:16.30 - (14.1)
3.0 - 1:30.41 - (14.1)
3.5 - 1:45.09 - (14.6)
4.0 - 1:59.81 - (14.7)
4.5 - 2:14.87 - (15.0)
5.0 - 2:30.00 - (15.1)
5.5 - 2:45.43 - (15.4)
6.0 - 3:00.71 - (15.2)
2.31 70
4 4 Poland (41) Natalia Czerwonka (42) Katarzyna Wozniak (43) Luiza Zlotkowska (0)   POL POL 3:01.490.5 - 19.26 - (19.2)
1.0 - 33.87 - (14.6)
1.5 - 48.14 - (14.2)
2.0 - 1:02.55 - (14.4)
2.5 - 1:16.80 - (14.2)
3.0 - 1:31.30 - (14.5)
3.5 - 1:46.08 - (14.7)
4.0 - 2:01.13 - (15.0)
4.5 - 2:16.24 - (15.1)
5.0 - 2:31.56 - (15.3)
5.5 - 2:46.49 - (14.9)
6.0 - 3:01.49 - (14.9)
3.09 60
5 7 Norway (37) Hege Bøkko (38) Mari Hemmer (39) Ida Njåtun (0)   NOR NOR 3:03.270.5 - 20.00 - (20.0)
1.0 - 34.61 - (14.6)
1.5 - 48.86 - (14.2)
2.0 - 1:03.44 - (14.5)
2.5 - 1:18.00 - (14.5)
3.0 - 1:32.80 - (14.7)
3.5 - 1:47.68 - (14.8)
4.0 - 2:02.73 - (15.0)
4.5 - 2:17.75 - (15.0)
5.0 - 2:33.04 - (15.2)
5.5 - 2:48.17 - (15.1)
6.0 - 3:03.27 - (15.0)
4.87 50
6 1 Germany (10) Stephanie Beckert (12) Isabell Ost (13) Claudia Pechstein (0)   GER GER 3:03.520.5 - 19.71 - (19.7)
1.0 - 34.32 - (14.6)
1.5 - 48.83 - (14.5)
2.0 - 1:03.57 - (14.7)
2.5 - 1:18.43 - (14.8)
3.0 - 1:33.40 - (14.9)
3.5 - 1:48.20 - (14.7)
4.0 - 2:03.34 - (15.1)
4.5 - 2:18.41 - (15.0)
5.0 - 2:33.53 - (15.1)
5.5 - 2:48.62 - (15.0)
6.0 - 3:03.52 - (14.9)
5.12 45
7 6 Japan (15) Masako Hozumi (17) Ayaka Kikuchi (20) Risa Takayama (0)   JPN JPN 3:04.160.5 - 19.38 - (19.3)
1.0 - 34.03 - (14.6)
1.5 - 48.17 - (14.1)
2.0 - 1:02.63 - (14.4)
2.5 - 1:17.10 - (14.4)
3.0 - 1:31.99 - (14.8)
3.5 - 1:47.25 - (15.2)
4.0 - 2:02.55 - (15.2)
4.5 - 2:17.83 - (15.2)
5.0 - 2:33.33 - (15.5)
5.5 - 2:48.61 - (15.2)
6.0 - 3:04.16 - (15.5)
5.76 40
8 10 Kazakhstan (21) Yekaterina Aydova (23) Tatyana Sokirko (24) Yelena Urvantseva (0)   KAZ KAZ 3:12.130.5 - 19.58 - (19.5)
1.0 - 34.69 - (15.1)
1.5 - 49.94 - (15.2)
2.0 - 1:05.20 - (15.2)
2.5 - 1:20.55 - (15.3)
3.0 - 1:35.75 - (15.2)
3.5 - 1:51.45 - (15.7)
4.0 - 2:07.08 - (15.6)
4.5 - 2:23.24 - (16.1)
5.0 - 2:39.52 - (16.2)
5.5 - 2:55.89 - (16.3)
6.0 - 3:12.13 - (16.2)
13.73 35
9 8 Russia (45) Yevgeniya Dmitriyeva (46) Olga Graf (49) Yekaterina Shikhova (0)   RUS RUS DQ0.5 - 19.40 - (19.3)
1.0 - 33.94 - (14.5)
1.5 - 48.25 - (14.3)
2.0 - 1:02.59 - (14.3)
2.5 - 1:17.20 - (14.6)
3.0 - 1:31.91 - (14.7)
3.5 - 1:46.27 - (14.3)
4.0 - 2:00.80 - (14.5)
4.5 - 2:15.52 - (14.7)
5.0 - 2:30.48 - (14.9)
5.5 - 2:45.70 - (15.2)
6.0 - 3:00.91 - (15.2)
0